This is the latest recevied weather packets stored in our database for station/object KF4PPJ. If no packets are shown the sender has not sent any weather packets the latest 10 day(s).
| Time | Temp. | Humidity | Pressure | Rain* | Wind** | Luminosity | Snow |
|---|---|---|---|---|---|---|---|
| 1777923738 | 20.56° C | 57% | 1013.8 hPa | 0 mm | - | 606 W/m² | - |
| 1777923434 | 20.56° C | 57% | 1013.9 hPa | 0 mm | - | 651 W/m² | - |
| 1777923132 | 20.56° C | 56% | 1013.9 hPa | 0 mm | - | 674 W/m² | - |
| 1777922830 | 20.56° C | 56% | 1014.1 hPa | 0 mm | - | 655 W/m² | - |
| 1777922528 | 20.56° C | 56% | 1014 hPa | 0 mm | - | 649 W/m² | - |
| 1777922226 | 20.56° C | 56% | 1014 hPa | 0 mm | - | 718 W/m² | - |
| 1777921922 | 20° C | 58% | 1014.1 hPa | 0 mm | - | 680 W/m² | - |
| 1777921618 | 20° C | 58% | 1014.2 hPa | 0 mm | - | 632 W/m² | - |
| 1777921314 | 20.56° C | 57% | 1014 hPa | 0 mm | - | 618 W/m² | - |
| 1777921011 | 20° C | 58% | 1014.2 hPa | 0 mm | - | 609 W/m² | - |
| 1777920708 | 20° C | 59% | 1014.1 hPa | 0 mm | - | 533 W/m² | - |
| 1777920404 | 19.44° C | 59% | 1014.2 hPa | 0 mm | - | 456 W/m² | - |
| 1777920099 | 18.89° C | 61% | 1014.1 hPa | 0 mm | - | 463 W/m² | - |
| 1777919796 | 18.89° C | 63% | 1014.2 hPa | 0 mm | - | 512 W/m² | - |
| 1777919493 | 18.89° C | 62% | 1014.3 hPa | 0 mm | - | 507 W/m² | - |
| 1777919191 | 18.89° C | 62% | 1014.3 hPa | 0 mm | - | 652 W/m² | - |
| 1777918888 | 18.89° C | 63% | 1014 hPa | 0 mm | - | 582 W/m² | - |
| 1777918586 | 18.33° C | 64% | 1014.4 hPa | 0 mm | - | 510 W/m² | - |
| 1777918283 | 18.89° C | 63% | 1014.3 hPa | 0 mm | - | 509 W/m² | - |
| 1777917982 | 18.33° C | 65% | 1014.5 hPa | 0 mm | - | 586 W/m² | - |
| 1777917681 | 18.89° C | 63% | 1014.3 hPa | 0 mm | - | 706 W/m² | - |
| 1777917378 | 18.89° C | 64% | 1014.5 hPa | 0 mm | - | 738 W/m² | - |
| 1777917074 | 18.33° C | 64% | 1014.4 hPa | 0 mm | - | 731 W/m² | - |
| 1777916772 | 18.33° C | 65% | 1014.4 hPa | 0 mm | - | 702 W/m² | - |
| 1777916468 | 17.78° C | 67% | 1014.3 hPa | 0 mm | - | 641 W/m² | - |
* Rain latest hour (hover to see other rain measurements)
** Current wind speed in m/s (hover to see current wind gust speed)